Погода Молчаново

Погода Молчаново : погода сейчас, прогноз погоды и архив. Всё, что Вы хотите узнать о погоде Молчаново!

Поиск расширенной информации на нашем сайте:

Другие новости

Новости СМИ2

Главная страница сайта

Новости сайта

03.07.2017

Напоминаем, что на нашем специализированном сайте Метеоцентр.Азия вы можете получить высокодетализированные автоматические прогнозы погоды по пунктам России, СНГ и мира в авиационном формате (включающие направление и скорость ветра, видимость, явления погоды, количество и форму облачности, нижнюю и верхнюю границу облачности).


Погода Молчаново - сегодня

Время (UTC), дата Ветер
(°,м/с) 
Видим.   Явления Облачность Т
(°С)
Тd
(°С)
f(%) Тe
(°С)
Pmin
(гПа)
dP
(гПа)
Po
(мм)
O2
(г/м3)
Тmin Tmax R s Состояние
почвы
09 16.06.18 170 (Ю) 20000 м  гроза без осадков  10/5 300 м кучево-дожд., средняя, верхняя 
[Cb cap|Ac trans|Ci fib]
+19.3 +12 63 +24  1005.4  -0.1  744  278           
12 16.06.18 140 (ЮВ) 2{10}  20000 м  гроза, ливневой дождь  10/6 300 м кучево-дожд., средняя 
[Cb cap|Ac trans]
+15.1 +13.5 90 +22  1006.1  0.5  745  282    +24.1     
15 16.06.18 210 (ЮЗ) 20000 м  {гроза, ливн. осадки}  9/6 600 м средняя 
[Sc|Ac trans]
+15.2 +12.8 86 +21  1006.8  0.7  745  282           
18 16.06.18 220 (ЮЗ) 20000 м  {гроза, ливн. осадки}  6/4 600 м средняя 
[Sc|Ac trans]
+12.6 +11.3 92 +15  1007.7  0.7  746  285           
21 16.06.18 220 (ЮЗ) 20000 м    10/0 средняя, верхняя 
[Ac trans|Ci fib]
+10.7 +9.7 94 +13  1008.7  746  288           
00 17.06.18 130 (ЮВ) 20000 м    9/0 средняя, верхняя 
[Ac trans|Ci fib]
+10.5 +9.7 95 +13  1009.4  0.6  747  288  +9.9    0.0    влажная 
03 17.06.18 120 (ЮВ) 20000 м    8/0 средняя, верхняя 
[Ac trans|Ci fib]
+16 +10.8 71 +19  1009.4  0.3  747  282           
06 17.06.18 110 (В) 20000 м    10/0 средняя 
[Ac As]
+16.9 +10.8 67 +20  1009.6  0.1  747  282           
09 17.06.18 090 (В) 20000 м    10/1 600 м средняя, верхняя 
[Cu hum|Ac trans|Ci fib]
+19 +10.7 59 +22  1008.3  -1.2  746  279           
12 17.06.18 110 (В) 20000 м    ясно 
+20 +11.5 58 +23  1007.1  -1  746  278    +20       
15 17.06.18 070 (В) 20000 м    10/0 средняя, верхняя 
[Ac trans|Ci fib]
+17.7 +13.1 74 +25  1005.9  -1.4  745  279           
18 17.06.18 070 (В) 20000 м  гроза без осадков  10/3 300 м кучево-дожд., средняя, верхняя 
[Cb calv|Ac trans|Ci fib]
+17.3 +12.5 73 +23  1004.2  -1.7  743  279           
21 17.06.18 110 (В) 20000 м  слаб. ливневой дождь, в посл. час гроза  10/5 300 м кучево-дожд., средняя, верхняя 
[Cb calv|Ac trans|Ci fib]
+15.2 +14.4 95 +23  1002.8  -1.4  742  280           
00 18.06.18 090 (В) 20000 м  {гроза, ливн. осадки}  6/0 верхняя 
[Ci fib]
+16.6 +14.5 87 +25  1003.7  0.9  743  279  +15.1    11    влажная 
03 18.06.18 100 (В) 20000 м    8/6 600 м средняя, верхняя 
[Sc|Ac trans|Ci fib]
+20.9 +15.8 73 +31  1003.9  0.4  743  275           
06 18.06.18 050 (СВ) 20000 м    6/1 600 м верхняя 
[Sc|Ci fib]
+24.7 +17 62 +37  1002.9  -0.8  743  271           
09 18.06.18 080 (В) 20000 м    6/1 600 м верхняя 
[Cu hum|Ci fib]
+29.5 +14 39 +37  1000.6  -2.1  741  267           
12 18.06.18 090 (В) 20000 м  гроза без осадков  8/4 300 м кучево-дожд., верхняя 
[Cb calv|Ci fib]
+27 +9.7 34 +28  999.5  -1.2  740  270    +31       
15 18.06.18 280 (З) 20000 м  {гроза}  10/0 средняя, верхняя 
[Ac trans|Ci fib]
+20.7 +16.6 77 +33  998.5  -1.3  739  273           
18 18.06.18 270 (З) 20000 м  {гроза}  10/0 средняя, верхняя 
[Ac trans|Ci fib]
+18.5 +14 75 +26  998.2  -0.4  739  276           
21 18.06.18 260 (З) 20000 м    10/0 средняя, верхняя 
[Ac trans|Ci fib]
+16 +12.7 81 +21  997.9  -0.4  739  279           
00 19.06.18 140 (ЮВ) 20000 м  в посл. час гроза{ливн. осадки}  9/4 300 м кучево-дожд., средняя, верхняя 
[Cb calv|Ac trans|Ci fib]
+15.9 +14.3 90 +25  996.9  -1  738  278  +14.9      влажная 
03 19.06.18 110 (В) 20000 м    1/1 600 м 
[Cu hum]
+22 +14.6 63 +30  997.7  1.1  739  272           
06 19.06.18 210 (ЮЗ) 20000 м    8/8 600 м 
[Cu med, cong]
+22.7 +14.4 59 +31  998  0.4  739  272           
09 19.06.18 080 (В) 20000 м    8/6 600 м верхняя 
[Cu med, cong|Ci fib]
+25.3 +14.6 52 +34  997.6  -0.4  739  269           
Время (UTC), дата Ветер
(°,м/с) 
Видим.   Явления Облачность Т
(°С)
Тd
(°С)
f(%) Тe
(°С)
Pmin
(гПа)
dP
(гПа)
Po
(мм)
O2
(г/м3)
Тmin Tmax R s Состояние
почвы

Для получения пояснительной информации подведите курсор к названию столбца.

ПОГОДА Молчаново - архив

Всё, что Вы хотите узнать о погоде Молчаново - удобно и подробно!

Выберите нужную дату (начиная с 1 января 2015* года) и нажмите кнопку "Найти".
Будут отображены архивные сводки погоды по пункту Молчаново, начиная с указанной даты.


Отображать данные в формате CSV (для использования в таблицах Excel)


Внимание! Наш архив погоды предназначен исключительно для личного некоммерческого использования в познавательных целях. Если Вам необходимы официальные справки о состоянии погоды (для производственных, юридических, коммерческих и т.п. целей), обращайтесь в органы Росгидромета.

*Примечание: данная дата относится к архиву по метеостанциям СССР (Россия, СНГ, Балтия).
Архив по метеостанциям Зарубежной Европы и Азии (кроме Китая) хранится 10 дней, по другим регионам земного шара (Китай, Африка, Америка, Австралия, Океания) - 1 день.

Молчаново - район местоположения метеостанции


Название, широта, долгота, высота метеостанции:
Молчаново 57.6°ш. 83.8°д. 114 м над ур. моря [Российская Федерация]

Дополнительная информация

В oтличие oт бoльшинства пoгoдных сайтoв мы публикуем пoдрoбную метеoинфoрмацию в детальнoм прoфессиoнальнoм фoрмате.

Характеристики температуры и влажнoсти вoздуха измеряются на высoте 2 м в тени вдали oт зданий и деревьев.
Скoрoсть ветра измеряется на высoте 10 м (на урoвне рoста челoвека скoрoсть ветра ниже в 1.5-2 раза). Если метеoстанция нахoдится в гoрoде или в лесу, тo скoрoсть ветра занижена на 2-4 м/с пo сравнению с oткрытым местoм. Скoрoсть ветра над акватoриями крупных рек и oзёр, а также на вершинах хoлмoв на 2-5 м/с выше, чем в oбычных услoвиях.
Атмoсфернoе давление в разных тoчках местнoсти мoжет значительнo oтличаться oт давления на метеoстанции, в зависимoсти oт услoвий рельефа (при пoдъёме на 10 м давление пoнижается примернo на 1 мм рт.ст.).